ZHONGXING-6C

Last updated on Mon Jun 22 2026 00:03:06 GMT+0000 (Coordinated Universal Time)

1 44067U 19012A 26172.55845684 -.00000336 00000+0 00000+0 0 9998 2 44067 0.0848 74.4909 0014083 335.7039 191.0114 1.00271888 26787
UTC large
Height (km)
Speed (km/s)
/
Latitude / Longitude
Inclination (degrees)
Orbital Period (minutes)
Azimuth
Elevation
Range (km)
Doppler Factor

Next 0 passes for location: London (51.5072 / 0.1276)

No passes found over London.
ZHONGXING-6C